Lihue, HI

12:05 PM HST on February 23, 2017 (GMT -1000)
Lihue

Weather History for PHLI - May, 2014

Change the Weather History Date:

Saturday, May 24, 2014

  Actual Average Record
Temperature  
Mean Temperature 76 °F 76 °F  
Max Temperature 82 °F 82 °F 85 °F (1981)
Min Temperature 70 °F 71 °F 62 °F (1985)
Degree Days  
Heating Degree Days 0 0  
Month to date heating degree days 0 0  
Since 1 July heating degree days 0 0  
Cooling Degree Days 11 12  
Month to date cooling degree days 261 252  
Year to date cooling degree days 1137 1156  
Growing Degree Days 26 (Base 50)    
Moisture  
Dew Point 69 °F    
Average Humidity 85    
Maximum Humidity 100    
Minimum Humidity 69    
Precipitation  
Precipitation 0.74 in 0.06 in 0.83 in (2014)
Month to date precipitation 1.97 1.71  
Year to date precipitation 14.95 15.48  
Snow  
Snow 0.00 in - - ()
Month to date snowfall 0.0  
Since 1 July snowfall 0.0  
Snow Depth 0.00 in    
Sea Level Pressure  
Sea Level Pressure 30.01 in    
Wind  
Wind Speed 8 mph (West)    
Max Wind Speed 23 mph    
Max Gust Speed 25 mph    
Visibility 8 miles    
Events Rain , Thunderstorm    
T = Trace of Precipitation, MM = Missing Value Source: NWS Daily Summary

Daily Weather History Graph

Daily Weather History Graph

Search for Another Location

Airport or City:

Trip Planner

Search our weather history database for the weather conditions in past years. The results will help you decide how hot, cold, wet, or windy it might be!

Date:

Astronomy

May. 24, 2014 Rise Set
Actual Time 5:54 AM HST 7:13 PM HST
Civil Twilight 5:30 AM HST 7:38 PM HST
Nautical Twilight 5:01 AM HST 8:07 PM HST
Astronomical Twilight 4:31 AM HST 8:37 PM HST
Moon 3:01 AM HST (5/24) 3:48 PM HST (5/24)
Length of Visible Light 14h 07m
Length of Day
13h 18m
Waning Crescent, 16% of the Moon is Illuminated
May 24
Waning Crescent
May 28
New
Jun 5
First Quarter
Jun 12
Full
Jun 19
Last Quarter

Hourly Weather History & Observations

Time (HST) Temp. Heat Index Dew Point Humidity Pressure Visibility Wind Dir Wind Speed Gust Speed Precip Events Conditions
12:53 AM 73.0 °F - 71.1 °F 93% 30.03 in 9.0 mi WSW 11.5 mph - 0.00 in Rain Light Rain
12:59 AM 73.4 °F - 69.8 °F 88% 30.04 in 8.0 mi West 13.8 mph - 0.01 in Rain , Thunderstorm Light Thunderstorms and Rain
1:13 AM 71.6 °F - 69.8 °F 94% 30.03 in 1.8 mi WSW 17.3 mph 25.3 mph 0.10 in Rain , Thunderstorm Heavy Thunderstorms and Rain
1:27 AM 71.6 °F - 69.8 °F 94% 30.02 in 3.0 mi West 9.2 mph - 0.39 in Rain , Thunderstorm Thunderstorms and Rain
1:49 AM 71.6 °F - 69.8 °F 94% 30.02 in 6.0 mi West 11.5 mph - 0.42 in Rain Rain
1:53 AM 71.1 °F - 70.0 °F 96% 30.01 in 5.0 mi West 12.7 mph - 0.43 in Rain Rain
2:53 AM 71.1 °F - 69.1 °F 93% 29.99 in 10.0 mi West 8.1 mph - 0.11 in Rain Light Rain
3:53 AM 71.1 °F - 70.0 °F 96% 29.99 in 7.0 mi WSW 4.6 mph - 0.01 in Rain Light Rain
4:53 AM 70.0 °F - 69.1 °F 97% 29.98 in 5.0 mi West 11.5 mph - 0.05 in Rain Rain
5:53 AM 70.0 °F - 69.1 °F 97% 29.98 in 7.0 mi West 6.9 mph - 0.13 in Rain Light Rain
6:53 AM 72.0 °F - 70.0 °F 93% 30.01 in 9.0 mi SW 6.9 mph - 0.00 in   Overcast
7:53 AM 73.9 °F - 71.1 °F 91% 30.01 in 6.0 mi West 5.8 mph - 0.01 in Rain Light Rain
8:53 AM 77.0 °F - 72.0 °F 84% 30.02 in 10.0 mi South 3.5 mph - 0.00 in   Overcast
9:53 AM 78.1 °F - 72.0 °F 81% 30.02 in 10.0 mi SSW 8.1 mph - 0.00 in   Mostly Cloudy
10:53 AM 78.1 °F - 71.1 °F 79% 30.02 in 10.0 mi SSW 5.8 mph - 0.00 in   Overcast
11:53 AM 77.0 °F - 70.0 °F 79% 30.02 in 10.0 mi SSE 10.4 mph - N/A   Overcast
12:53 PM 77.0 °F - 71.1 °F 82% 30.00 in 10.0 mi South 6.9 mph - N/A   Overcast
1:53 PM 82.0 °F 86.3 °F 71.1 °F 69% 29.99 in 10.0 mi SSE 8.1 mph - N/A   Scattered Clouds
2:53 PM 80.1 °F 83.2 °F 70.0 °F 71% 29.97 in 10.0 mi SE 10.4 mph - N/A   Overcast
3:53 PM 77.0 °F - 71.1 °F 82% 29.97 in 10.0 mi SSE 10.4 mph - N/A   Mostly Cloudy
4:53 PM 73.9 °F - 69.1 °F 85% 29.99 in 10.0 mi North 19.6 mph 26.5 mph N/A   Overcast
5:11 PM 73.4 °F - 66.2 °F 78% 30.00 in 10.0 mi North 13.8 mph 26.5 mph N/A Thunderstorm Thunderstorm
5:26 PM 71.6 °F - 66.2 °F 83% 30.00 in 7.0 mi North 11.5 mph 23.0 mph 0.00 in Rain , Thunderstorm Light Thunderstorms and Rain
5:53 PM 70.0 °F - 66.9 °F 90% 30.00 in 2.0 mi North 16.1 mph 23.0 mph 0.08 in Rain Heavy Rain
6:05 PM 69.8 °F - 68.0 °F 94% 30.00 in 8.0 mi North 10.4 mph - 0.01 in Rain Light Rain
6:53 PM 71.1 °F - 69.1 °F 93% 30.01 in 10.0 mi North 9.2 mph - 0.01 in   Scattered Clouds
7:53 PM 71.1 °F - 68.0 °F 90% 30.02 in 10.0 mi North 6.9 mph - N/A   Mostly Cloudy
8:53 PM 70.0 °F - 68.0 °F 93% 30.04 in 10.0 mi NW 4.6 mph - N/A   Overcast
9:53 PM 70.0 °F - 69.1 °F 97% 30.06 in 10.0 mi WNW 3.5 mph - N/A   Overcast
10:50 PM 69.8 °F - 68.0 °F 94% 30.07 in 10.0 mi West 8.1 mph - N/A   Overcast
10:53 PM 70.0 °F - 68.0 °F 93% 30.06 in 10.0 mi West 8.1 mph - N/A   Overcast
11:53 PM 70.0 °F - 68.0 °F 93% 30.04 in 10.0 mi West 3.5 mph - N/A   Overcast